Year,Month,Day,Hour,Minute,Value (Times are PST for barometer in hPa)
2016,10,14,00,00,979.75
2016,10,14,00,01,979.75
2016,10,14,00,02,979.72
2016,10,14,00,03,979.75
2016,10,14,00,04,979.82
2016,10,14,00,05,979.85
2016,10,14,00,06,979.99
2016,10,14,00,07,980.12
2016,10,14,00,08,980.22
2016,10,14,00,09,980.22
2016,10,14,00,10,980.36
2016,10,14,00,11,980.43
2016,10,14,00,12,980.46
2016,10,14,00,13,980.46
2016,10,14,00,14,980.50
2016,10,14,00,15,980.43
2016,10,14,00,16,980.46
2016,10,14,00,17,980.43
2016,10,14,00,18,980.43
2016,10,14,00,19,980.36
2016,10,14,00,20,980.29
2016,10,14,00,21,980.21
2016,10,14,00,22,980.05
2016,10,14,00,23,979.89
2016,10,14,00,24,979.75
2016,10,14,00,25,979.75
2016,10,14,00,26,979.68
2016,10,14,00,27,979.61
2016,10,14,00,28,979.55
2016,10,14,00,29,979.41
2016,10,14,00,30,979.24
2016,10,14,00,31,979.11
2016,10,14,00,32,979.07
2016,10,14,00,33,979.07
2016,10,14,00,34,979.04
2016,10,14,00,35,978.94
2016,10,14,00,36,978.87
2016,10,14,00,37,978.90
2016,10,14,00,38,978.97
2016,10,14,00,39,979.01
2016,10,14,00,40,979.14
2016,10,14,00,41,979.11
2016,10,14,00,42,979.11
2016,10,14,00,43,979.11
2016,10,14,00,44,979.11
2016,10,14,00,45,979.14
2016,10,14,00,46,979.07
2016,10,14,00,47,979.11
2016,10,14,00,48,979.14
2016,10,14,00,49,979.04
2016,10,14,00,50,978.87
2016,10,14,00,51,978.87
2016,10,14,00,52,978.87
2016,10,14,00,53,978.77
2016,10,14,00,54,978.80
2016,10,14,00,55,978.87
2016,10,14,00,56,978.84
2016,10,14,00,57,978.70
2016,10,14,00,58,978.67
2016,10,14,00,59,978.70
2016,10,14,01,00,978.67
2016,10,14,01,01,978.80
2016,10,14,01,02,978.73
2016,10,14,01,03,978.77
2016,10,14,01,04,978.77
2016,10,14,01,05,978.84
2016,10,14,01,06,978.70
2016,10,14,01,07,978.67
2016,10,14,01,08,978.77
2016,10,14,01,09,978.84
2016,10,14,01,10,978.84
2016,10,14,01,11,978.80
2016,10,14,01,12,978.87
2016,10,14,01,13,978.87
2016,10,14,01,14,978.80
2016,10,14,01,15,978.84
2016,10,14,01,16,978.87
2016,10,14,01,17,978.90
2016,10,14,01,18,979.01
2016,10,14,01,19,979.07
2016,10,14,01,20,979.01
2016,10,14,01,21,979.07
2016,10,14,01,22,979.11
2016,10,14,01,23,979.24
2016,10,14,01,24,979.24
2016,10,14,01,25,979.28
2016,10,14,01,26,979.28
2016,10,14,01,27,979.21
2016,10,14,01,28,979.28
2016,10,14,01,29,979.31
2016,10,14,01,30,979.38
2016,10,14,01,31,979.38
2016,10,14,01,32,979.48
2016,10,14,01,33,979.58
2016,10,14,01,34,979.55
2016,10,14,01,35,979.51
2016,10,14,01,36,979.58
2016,10,14,01,37,979.51
2016,10,14,01,38,979.65
2016,10,14,01,39,979.75
2016,10,14,01,40,979.82
2016,10,14,01,41,979.82
2016,10,14,01,42,979.89
2016,10,14,01,43,979.92
2016,10,14,01,44,979.99
2016,10,14,01,45,979.99
2016,10,14,01,46,980.06
2016,10,14,01,47,980.06
2016,10,14,01,48,980.19
2016,10,14,01,49,980.22
2016,10,14,01,50,980.33
2016,10,14,01,51,980.33
2016,10,14,01,52,980.29
2016,10,14,01,53,980.36
2016,10,14,01,54,980.39
2016,10,14,01,55,980.46
2016,10,14,01,56,980.43
2016,10,14,01,57,980.43
2016,10,14,01,58,980.50
2016,10,14,01,59,980.43
2016,10,14,02,00,980.50
2016,10,14,02,01,980.46
2016,10,14,02,02,980.46
2016,10,14,02,03,980.39
2016,10,14,02,04,980.43
2016,10,14,02,05,980.53
2016,10,14,02,06,980.70
2016,10,14,02,07,980.63
2016,10,14,02,08,980.73
2016,10,14,02,09,980.80
2016,10,14,02,10,980.87
2016,10,14,02,11,980.90
2016,10,14,02,12,981.10
2016,10,14,02,13,981.00
2016,10,14,02,14,981.10
2016,10,14,02,15,980.94
2016,10,14,02,16,980.97
2016,10,14,02,17,980.97
2016,10,14,02,18,981.00
2016,10,14,02,19,981.10
2016,10,14,02,20,981.21
2016,10,14,02,21,981.17
2016,10,14,02,22,981.21
2016,10,14,02,23,981.17
2016,10,14,02,24,981.17
2016,10,14,02,25,981.27
2016,10,14,02,26,981.24
2016,10,14,02,27,981.27
2016,10,14,02,28,981.24
2016,10,14,02,29,981.34
2016,10,14,02,30,981.41
2016,10,14,02,31,981.48
2016,10,14,02,32,981.44
2016,10,14,02,33,981.48
2016,10,14,02,34,981.58
2016,10,14,02,35,981.68
2016,10,14,02,36,981.68
2016,10,14,02,37,981.75
2016,10,14,02,38,981.76
2016,10,14,02,39,981.88
2016,10,14,02,40,981.92
2016,10,14,02,41,981.99
2016,10,14,02,42,982.02
2016,10,14,02,43,982.12
2016,10,14,02,44,982.22
2016,10,14,02,45,982.15
2016,10,14,02,46,982.12
2016,10,14,02,47,982.15
2016,10,14,02,48,982.15
2016,10,14,02,49,982.22
2016,10,14,02,50,982.30
2016,10,14,02,51,982.49
2016,10,14,02,52,982.56
2016,10,14,02,53,982.63
2016,10,14,02,54,982.66
2016,10,14,02,55,982.66
2016,10,14,02,56,982.73
2016,10,14,02,57,982.73
2016,10,14,02,58,982.83
2016,10,14,02,59,982.73
2016,10,14,03,00,982.87
2016,10,14,03,01,983.00
2016,10,14,03,02,983.10
2016,10,14,03,03,983.17
2016,10,14,03,04,983.20
2016,10,14,03,05,983.27
2016,10,14,03,06,983.27
2016,10,14,03,07,983.34
2016,10,14,03,08,983.31
2016,10,14,03,09,983.37
2016,10,14,03,10,983.37
2016,10,14,03,11,983.41
2016,10,14,03,12,983.41
2016,10,14,03,13,983.37
2016,10,14,03,14,983.41
2016,10,14,03,15,983.41
2016,10,14,03,16,983.41
2016,10,14,03,17,983.37
2016,10,14,03,18,983.37
2016,10,14,03,19,983.34
2016,10,14,03,20,983.34
2016,10,14,03,21,983.41
2016,10,14,03,22,983.44
2016,10,14,03,23,983.48
2016,10,14,03,24,983.41
2016,10,14,03,25,983.44
2016,10,14,03,26,983.44
2016,10,14,03,27,983.51
2016,10,14,03,28,983.54
2016,10,14,03,29,983.51
2016,10,14,03,30,983.51
2016,10,14,03,31,983.58
2016,10,14,03,32,983.58
2016,10,14,03,33,983.58
2016,10,14,03,34,983.68
2016,10,14,03,35,983.71
2016,10,14,03,36,983.78
2016,10,14,03,37,983.88
2016,10,14,03,38,983.88
2016,10,14,03,39,983.95
2016,10,14,03,40,983.92
2016,10,14,03,41,983.92
2016,10,14,03,42,983.88
2016,10,14,03,43,983.92
2016,10,14,03,44,983.88
2016,10,14,03,45,983.88
2016,10,14,03,46,983.81
2016,10,14,03,47,983.85
2016,10,14,03,48,983.92
2016,10,14,03,49,983.98
2016,10,14,03,50,983.98
2016,10,14,03,51,983.95
2016,10,14,03,52,983.92
2016,10,14,03,53,983.95
2016,10,14,03,54,983.95
2016,10,14,03,55,983.98
2016,10,14,03,56,984.02
2016,10,14,03,57,983.98
2016,10,14,03,58,984.02
2016,10,14,03,59,983.98
2016,10,14,04,00,984.02
2016,10,14,04,01,984.05
2016,10,14,04,02,984.08
2016,10,14,04,03,984.08
2016,10,14,04,04,984.12
2016,10,14,04,05,984.19
2016,10,14,04,06,984.22
2016,10,14,04,07,984.29
2016,10,14,04,08,984.19
2016,10,14,04,09,984.22
2016,10,14,04,10,984.25
2016,10,14,04,11,984.32
2016,10,14,04,12,984.36
2016,10,14,04,13,984.32
2016,10,14,04,14,984.36
2016,10,14,04,15,984.36
2016,10,14,04,16,984.36
2016,10,14,04,17,984.36
2016,10,14,04,18,984.39
2016,10,14,04,19,984.39
2016,10,14,04,20,984.39
2016,10,14,04,21,984.39
2016,10,14,04,22,984.39
2016,10,14,04,23,984.32
2016,10,14,04,24,984.25
2016,10,14,04,25,984.29
2016,10,14,04,26,984.32
2016,10,14,04,27,984.29
2016,10,14,04,28,984.29
2016,10,14,04,29,984.29
2016,10,14,04,30,984.19
2016,10,14,04,31,984.19
2016,10,14,04,32,984.19
2016,10,14,04,33,984.15
2016,10,14,04,34,984.15
2016,10,14,04,35,984.19
2016,10,14,04,36,984.22
2016,10,14,04,37,984.25
2016,10,14,04,38,984.29
2016,10,14,04,39,984.29
2016,10,14,04,40,984.32
2016,10,14,04,41,984.29
2016,10,14,04,42,984.36
2016,10,14,04,43,984.42
2016,10,14,04,44,984.39
2016,10,14,04,45,984.39
2016,10,14,04,46,984.39
2016,10,14,04,47,984.46
2016,10,14,04,48,984.42
2016,10,14,04,49,984.42
2016,10,14,04,50,984.39
2016,10,14,04,51,984.42
2016,10,14,04,52,984.32
2016,10,14,04,53,984.32
2016,10,14,04,54,984.32
2016,10,14,04,55,984.32
2016,10,14,04,56,984.36
2016,10,14,04,57,984.32
2016,10,14,04,58,984.36
2016,10,14,04,59,984.32
2016,10,14,05,00,984.32
2016,10,14,05,01,984.39
2016,10,14,05,02,984.42
2016,10,14,05,03,984.46
2016,10,14,05,04,984.42
2016,10,14,05,05,984.42
2016,10,14,05,06,984.39
2016,10,14,05,07,984.42
2016,10,14,05,08,984.46
2016,10,14,05,09,984.46
2016,10,14,05,10,984.49
2016,10,14,05,11,984.53
2016,10,14,05,12,984.53
2016,10,14,05,13,984.59
2016,10,14,05,14,984.59
2016,10,14,05,15,984.59
2016,10,14,05,16,984.63
2016,10,14,05,17,984.59
2016,10,14,05,18,984.69
2016,10,14,05,19,984.63
2016,10,14,05,20,984.69
2016,10,14,05,21,984.69
2016,10,14,05,22,984.69
2016,10,14,05,23,984.73
2016,10,14,05,24,984.66
2016,10,14,05,25,984.69
2016,10,14,05,26,984.69
2016,10,14,05,27,984.69
2016,10,14,05,28,984.69
2016,10,14,05,29,984.69
2016,10,14,05,30,984.76
2016,10,14,05,31,984.80
2016,10,14,05,32,984.80
2016,10,14,05,33,984.80
2016,10,14,05,34,984.76
2016,10,14,05,35,984.76
2016,10,14,05,36,984.80
2016,10,14,05,37,984.73
2016,10,14,05,38,984.73
2016,10,14,05,39,984.73
2016,10,14,05,40,984.73
2016,10,14,05,41,984.73
2016,10,14,05,42,984.69
2016,10,14,05,43,984.76
2016,10,14,05,44,984.66
2016,10,14,05,45,984.66
2016,10,14,05,46,984.66
2016,10,14,05,47,984.66
2016,10,14,05,48,984.63
2016,10,14,05,49,984.63
2016,10,14,05,50,984.63
2016,10,14,05,51,984.66
2016,10,14,05,52,984.66
2016,10,14,05,53,984.66
2016,10,14,05,54,984.63
2016,10,14,05,55,984.66
2016,10,14,05,56,984.63
2016,10,14,05,57,984.56
2016,10,14,05,58,984.49
2016,10,14,05,59,984.56
2016,10,14,06,00,984.53
2016,10,14,06,01,984.53
2016,10,14,06,02,984.46
2016,10,14,06,03,984.39
2016,10,14,06,04,984.42
2016,10,14,06,05,984.39
2016,10,14,06,06,984.36
2016,10,14,06,07,984.42
2016,10,14,06,08,984.42
2016,10,14,06,09,984.42
2016,10,14,06,10,984.42
2016,10,14,06,11,984.42
2016,10,14,06,12,984.46
2016,10,14,06,13,984.42
2016,10,14,06,14,984.39
2016,10,14,06,15,984.42
2016,10,14,06,16,984.39
2016,10,14,06,17,984.46
2016,10,14,06,18,984.39
2016,10,14,06,19,984.32
2016,10,14,06,20,984.32
2016,10,14,06,21,984.29
2016,10,14,06,22,984.22
2016,10,14,06,23,984.22
2016,10,14,06,24,984.29
2016,10,14,06,25,984.32
2016,10,14,06,26,984.46
2016,10,14,06,27,984.49
2016,10,14,06,28,984.53
2016,10,14,06,29,984.53
2016,10,14,06,30,984.53
2016,10,14,06,31,984.56
2016,10,14,06,32,984.49
2016,10,14,06,33,984.46
2016,10,14,06,34,984.46
2016,10,14,06,35,984.46
2016,10,14,06,36,984.39
2016,10,14,06,37,984.46
2016,10,14,06,38,984.49
2016,10,14,06,39,984.56
2016,10,14,06,40,984.49
2016,10,14,06,41,984.56
2016,10,14,06,42,984.59
2016,10,14,06,43,984.63
2016,10,14,06,44,984.66
2016,10,14,06,45,984.69
2016,10,14,06,46,984.66
2016,10,14,06,47,984.73
2016,10,14,06,48,984.69
2016,10,14,06,49,984.66
2016,10,14,06,50,984.73
2016,10,14,06,51,984.69
2016,10,14,06,52,984.69
2016,10,14,06,53,984.66
2016,10,14,06,54,984.69
2016,10,14,06,55,984.66
2016,10,14,06,56,984.69
2016,10,14,06,57,984.66
2016,10,14,06,58,984.66
2016,10,14,06,59,984.66
2016,10,14,07,00,984.66
2016,10,14,07,01,984.66
2016,10,14,07,02,984.63
2016,10,14,07,03,984.66
2016,10,14,07,04,984.63
2016,10,14,07,05,984.59
2016,10,14,07,06,984.63
2016,10,14,07,07,984.66
2016,10,14,07,08,984.66
2016,10,14,07,09,984.76
2016,10,14,07,10,984.73
2016,10,14,07,11,984.80
2016,10,14,07,12,984.83
2016,10,14,07,13,984.80
2016,10,14,07,14,984.80
2016,10,14,07,15,984.76
2016,10,14,07,16,984.83
2016,10,14,07,17,984.73
2016,10,14,07,18,984.73
2016,10,14,07,19,984.73
2016,10,14,07,20,984.76
2016,10,14,07,21,984.73
2016,10,14,07,22,984.80
2016,10,14,07,23,984.83
2016,10,14,07,24,984.76
2016,10,14,07,25,984.83
2016,10,14,07,26,984.90
2016,10,14,07,27,984.80
2016,10,14,07,28,984.86
2016,10,14,07,29,984.90
2016,10,14,07,30,984.90
2016,10,14,07,31,984.90
2016,10,14,07,32,984.90
2016,10,14,07,33,984.86
2016,10,14,07,34,984.83
2016,10,14,07,35,984.86
2016,10,14,07,36,984.90
2016,10,14,07,37,984.93
2016,10,14,07,38,984.90
2016,10,14,07,39,984.93
2016,10,14,07,40,984.93
2016,10,14,07,41,984.90
2016,10,14,07,42,984.90
2016,10,14,07,43,984.90
2016,10,14,07,44,984.90
2016,10,14,07,45,984.86
2016,10,14,07,46,984.90
2016,10,14,07,47,984.93
2016,10,14,07,48,984.93
2016,10,14,07,49,984.90
2016,10,14,07,50,984.93
2016,10,14,07,51,984.97
2016,10,14,07,52,984.93
2016,10,14,07,53,984.97
2016,10,14,07,54,985.00
2016,10,14,07,55,985.00
2016,10,14,07,56,985.03
2016,10,14,07,57,985.00
2016,10,14,07,58,985.00
2016,10,14,07,59,984.97
2016,10,14,08,00,984.93
2016,10,14,08,01,985.00
2016,10,14,08,02,984.97
2016,10,14,08,03,984.90
2016,10,14,08,04,984.90
2016,10,14,08,05,984.83
2016,10,14,08,06,984.83
2016,10,14,08,07,984.80
2016,10,14,08,08,984.86
2016,10,14,08,09,984.83
2016,10,14,08,10,984.80
2016,10,14,08,11,984.83
2016,10,14,08,12,984.83
2016,10,14,08,13,984.83
2016,10,14,08,14,984.90
2016,10,14,08,15,984.83
2016,10,14,08,16,984.86
2016,10,14,08,17,984.83
2016,10,14,08,18,984.80
2016,10,14,08,19,984.86
2016,10,14,08,20,984.90
2016,10,14,08,21,984.80
2016,10,14,08,22,984.90
2016,10,14,08,23,984.90
2016,10,14,08,24,984.90
2016,10,14,08,25,984.93
2016,10,14,08,26,984.93
2016,10,14,08,27,984.90
2016,10,14,08,28,984.97
2016,10,14,08,29,984.93
2016,10,14,08,30,984.86
2016,10,14,08,31,984.93
2016,10,14,08,32,984.86
2016,10,14,08,33,984.83
2016,10,14,08,34,984.90
2016,10,14,08,35,984.86
2016,10,14,08,36,984.90
2016,10,14,08,37,984.86
2016,10,14,08,38,984.86
2016,10,14,08,39,985.00
2016,10,14,08,40,984.90
2016,10,14,08,41,984.93
2016,10,14,08,42,984.83
2016,10,14,08,43,984.97
2016,10,14,08,44,985.00
2016,10,14,08,45,984.90
2016,10,14,08,46,985.00
2016,10,14,08,47,984.97
2016,10,14,08,48,985.00
2016,10,14,08,49,985.00
2016,10,14,08,50,985.07
2016,10,14,08,51,985.03
2016,10,14,08,52,985.10
2016,10,14,08,53,985.07
2016,10,14,08,54,985.07
2016,10,14,08,55,985.03
2016,10,14,08,56,985.03
2016,10,14,08,57,985.03
2016,10,14,08,58,985.10
2016,10,14,08,59,985.17
2016,10,14,09,00,985.13
2016,10,14,09,01,985.24
2016,10,14,09,02,985.20
2016,10,14,09,03,985.17
2016,10,14,09,04,985.17
2016,10,14,09,05,985.20
2016,10,14,09,06,985.17
2016,10,14,09,07,985.17
2016,10,14,09,08,985.20
2016,10,14,09,09,985.24
2016,10,14,09,10,985.20
2016,10,14,09,11,985.20
2016,10,14,09,12,985.13
2016,10,14,09,13,985.20
2016,10,14,09,14,985.07
2016,10,14,09,15,985.10
2016,10,14,09,16,984.97
2016,10,14,09,17,985.00
2016,10,14,09,18,985.10
2016,10,14,09,19,985.07
2016,10,14,09,20,985.10
2016,10,14,09,21,985.13
2016,10,14,09,22,985.17
2016,10,14,09,23,985.17
2016,10,14,09,24,985.13
2016,10,14,09,25,985.10
2016,10,14,09,26,985.10
2016,10,14,09,27,985.10
2016,10,14,09,28,985.07
2016,10,14,09,29,985.10
2016,10,14,09,30,985.13
2016,10,14,09,31,985.13
2016,10,14,09,32,985.10
2016,10,14,09,33,985.03
2016,10,14,09,34,985.03
2016,10,14,09,35,985.07
2016,10,14,09,36,985.07
2016,10,14,09,37,985.10
2016,10,14,09,38,985.03
2016,10,14,09,39,985.07
2016,10,14,09,40,985.03
2016,10,14,09,41,985.07
2016,10,14,09,42,985.00
2016,10,14,09,43,984.93
2016,10,14,09,44,984.93
2016,10,14,09,45,984.93
2016,10,14,09,46,984.90
2016,10,14,09,47,984.93
2016,10,14,09,48,984.90
2016,10,14,09,49,984.83
2016,10,14,09,50,984.86
2016,10,14,09,51,984.90
2016,10,14,09,52,984.93
2016,10,14,09,53,984.93
2016,10,14,09,54,984.97
2016,10,14,09,55,984.90
2016,10,14,09,56,984.83
2016,10,14,09,57,984.86
2016,10,14,09,58,984.86
2016,10,14,09,59,984.80
2016,10,14,10,00,984.83
2016,10,14,10,01,984.83
2016,10,14,10,02,984.86
2016,10,14,10,03,984.86
2016,10,14,10,04,984.76
2016,10,14,10,05,984.73
2016,10,14,10,06,984.73
2016,10,14,10,07,984.76
2016,10,14,10,08,984.76
2016,10,14,10,09,984.76
2016,10,14,10,10,984.76
2016,10,14,10,11,984.76
2016,10,14,10,12,984.69
2016,10,14,10,13,984.76
2016,10,14,10,14,984.76
2016,10,14,10,15,984.73
2016,10,14,10,16,984.69
2016,10,14,10,17,984.66
2016,10,14,10,18,984.69
2016,10,14,10,19,984.69
2016,10,14,10,20,984.69
2016,10,14,10,21,984.66
2016,10,14,10,22,984.69
2016,10,14,10,23,984.69
2016,10,14,10,24,984.73
2016,10,14,10,25,984.73
2016,10,14,10,26,984.63
2016,10,14,10,27,984.69
2016,10,14,10,28,984.63
2016,10,14,10,29,984.69
2016,10,14,10,30,984.63
2016,10,14,10,31,984.63
2016,10,14,10,32,984.63
2016,10,14,10,33,984.59
2016,10,14,10,34,984.56
2016,10,14,10,35,984.66
2016,10,14,10,36,984.66
2016,10,14,10,37,984.66
2016,10,14,10,38,984.69
2016,10,14,10,39,984.69
2016,10,14,10,40,984.66
2016,10,14,10,41,984.63
2016,10,14,10,42,984.63
2016,10,14,10,43,984.69
2016,10,14,10,44,984.59
2016,10,14,10,45,984.56
2016,10,14,10,46,984.56
2016,10,14,10,47,984.56
2016,10,14,10,48,984.49
2016,10,14,10,49,984.53
2016,10,14,10,50,984.49
2016,10,14,10,51,984.53
2016,10,14,10,52,984.49
2016,10,14,10,53,984.49
2016,10,14,10,54,984.49
2016,10,14,10,55,984.46
2016,10,14,10,56,984.46
2016,10,14,10,57,984.49
2016,10,14,10,58,984.42
2016,10,14,10,59,984.56
2016,10,14,11,00,984.49
2016,10,14,11,01,984.53
2016,10,14,11,02,984.53
2016,10,14,11,03,984.53
2016,10,14,11,04,984.56
2016,10,14,11,05,984.56
2016,10,14,11,06,984.56
2016,10,14,11,07,984.53
2016,10,14,11,08,984.56
2016,10,14,11,09,984.59
2016,10,14,11,10,984.63
2016,10,14,11,11,984.56
2016,10,14,11,12,984.56
2016,10,14,11,13,984.63
2016,10,14,11,14,984.59
2016,10,14,11,15,984.63
2016,10,14,11,16,984.56
2016,10,14,11,17,984.56
2016,10,14,11,18,984.49
2016,10,14,11,19,984.56
2016,10,14,11,20,984.59
2016,10,14,11,21,984.59
2016,10,14,11,22,984.63
2016,10,14,11,23,984.66
2016,10,14,11,24,984.63
2016,10,14,11,25,984.63
2016,10,14,11,26,984.63
2016,10,14,11,27,984.69
2016,10,14,11,28,984.73
2016,10,14,11,29,984.73
2016,10,14,11,30,984.76
2016,10,14,11,31,984.76
2016,10,14,11,32,984.69
2016,10,14,11,33,984.76
2016,10,14,11,34,984.76
2016,10,14,11,35,984.80
2016,10,14,11,36,984.80
2016,10,14,11,37,984.83
2016,10,14,11,38,984.83
2016,10,14,11,39,984.86
2016,10,14,11,40,984.83
2016,10,14,11,41,984.90
2016,10,14,11,42,984.90
2016,10,14,11,43,984.93
2016,10,14,11,44,984.90
2016,10,14,11,45,984.90
2016,10,14,11,46,984.93
2016,10,14,11,47,984.97
2016,10,14,11,48,984.93
2016,10,14,11,49,984.93
2016,10,14,11,50,984.86
2016,10,14,11,51,984.90
2016,10,14,11,52,984.90
2016,10,14,11,53,984.86
2016,10,14,11,54,984.86
2016,10,14,11,55,984.93
2016,10,14,11,56,984.86
2016,10,14,11,57,984.86
2016,10,14,11,58,984.90
2016,10,14,11,59,984.83
2016,10,14,12,00,984.83
2016,10,14,12,01,984.83
2016,10,14,12,02,984.90
2016,10,14,12,03,984.86
2016,10,14,12,04,984.93
2016,10,14,12,05,984.90
2016,10,14,12,06,984.83
2016,10,14,12,07,984.86
2016,10,14,12,08,984.86
2016,10,14,12,09,984.83
2016,10,14,12,10,984.86
2016,10,14,12,11,984.83
2016,10,14,12,12,984.83
2016,10,14,12,13,984.76
2016,10,14,12,14,984.80
2016,10,14,12,15,984.80
2016,10,14,12,16,984.86
2016,10,14,12,17,984.86
2016,10,14,12,18,984.76
2016,10,14,12,19,984.76
2016,10,14,12,20,984.83
2016,10,14,12,21,984.80
2016,10,14,12,22,984.80
2016,10,14,12,23,984.80
2016,10,14,12,24,984.76
2016,10,14,12,25,984.76
2016,10,14,12,26,984.73
2016,10,14,12,27,984.73
2016,10,14,12,28,984.73
2016,10,14,12,29,984.69
2016,10,14,12,30,984.73
2016,10,14,12,31,984.69
2016,10,14,12,32,984.63
2016,10,14,12,33,984.56
2016,10,14,12,34,984.53
2016,10,14,12,35,984.56
2016,10,14,12,36,984.46
2016,10,14,12,37,984.53
2016,10,14,12,38,984.49
2016,10,14,12,39,984.53
2016,10,14,12,40,984.53
2016,10,14,12,41,984.56
2016,10,14,12,42,984.53
2016,10,14,12,43,984.59
2016,10,14,12,44,984.59
2016,10,14,12,45,984.59
2016,10,14,12,46,984.56
2016,10,14,12,47,984.53
2016,10,14,12,48,984.56
2016,10,14,12,49,984.56
2016,10,14,12,50,984.59
2016,10,14,12,51,984.66
2016,10,14,12,52,984.63
2016,10,14,12,53,984.59
2016,10,14,12,54,984.59
2016,10,14,12,55,984.63
2016,10,14,12,56,984.66
2016,10,14,12,57,984.63
2016,10,14,12,58,984.59
2016,10,14,12,59,984.56
2016,10,14,13,00,984.56
2016,10,14,13,01,984.56
2016,10,14,13,02,984.63
2016,10,14,13,03,984.63
2016,10,14,13,04,984.63
2016,10,14,13,05,984.56
2016,10,14,13,06,984.56
2016,10,14,13,07,984.49
2016,10,14,13,08,984.49
2016,10,14,13,09,984.56
2016,10,14,13,10,984.53
2016,10,14,13,11,984.53
2016,10,14,13,12,984.56
2016,10,14,13,13,984.53
2016,10,14,13,14,984.53
2016,10,14,13,15,984.53
2016,10,14,13,16,984.56
2016,10,14,13,17,984.59
2016,10,14,13,18,984.63
2016,10,14,13,19,984.66
2016,10,14,13,20,984.66
2016,10,14,13,21,984.66
2016,10,14,13,22,984.66
2016,10,14,13,23,984.69
2016,10,14,13,24,984.73
2016,10,14,13,25,984.69
2016,10,14,13,26,984.73
2016,10,14,13,27,984.73
2016,10,14,13,28,984.69
2016,10,14,13,29,984.69
2016,10,14,13,30,984.73
2016,10,14,13,31,984.73
2016,10,14,13,32,984.66
2016,10,14,13,33,984.63
2016,10,14,13,34,984.63
2016,10,14,13,35,984.63
2016,10,14,13,36,984.59
2016,10,14,13,37,984.66
2016,10,14,13,38,984.69
2016,10,14,13,39,984.66
2016,10,14,13,40,984.63
2016,10,14,13,41,984.69
2016,10,14,13,42,984.66
2016,10,14,13,43,984.66
2016,10,14,13,44,984.66
2016,10,14,13,45,984.63
2016,10,14,13,46,984.63
2016,10,14,13,47,984.63
2016,10,14,13,48,984.69
2016,10,14,13,49,984.76
2016,10,14,13,50,984.76
2016,10,14,13,51,984.80
2016,10,14,13,52,984.76
2016,10,14,13,53,984.83
2016,10,14,13,54,984.86
2016,10,14,13,55,984.90
2016,10,14,13,56,984.93
2016,10,14,13,57,984.93
2016,10,14,13,58,984.97
2016,10,14,13,59,984.97
2016,10,14,14,00,984.97
2016,10,14,14,01,985.03
2016,10,14,14,02,985.03
2016,10,14,14,03,985.03
2016,10,14,14,04,985.03
2016,10,14,14,05,985.00
2016,10,14,14,06,985.00
2016,10,14,14,07,985.07
2016,10,14,14,08,985.03
2016,10,14,14,09,985.07
2016,10,14,14,10,985.10
2016,10,14,14,11,985.17
2016,10,14,14,12,985.20
2016,10,14,14,13,985.20
2016,10,14,14,14,985.17
2016,10,14,14,15,985.27
2016,10,14,14,16,985.27
2016,10,14,14,17,985.34
2016,10,14,14,18,985.37
2016,10,14,14,19,985.37
2016,10,14,14,20,985.37
2016,10,14,14,21,985.37
2016,10,14,14,22,985.37
2016,10,14,14,23,985.37
2016,10,14,14,24,985.30
2016,10,14,14,25,985.34
2016,10,14,14,26,985.30
2016,10,14,14,27,985.30
2016,10,14,14,28,985.30
2016,10,14,14,29,985.27
2016,10,14,14,30,985.27
2016,10,14,14,31,985.34
2016,10,14,14,32,985.37
2016,10,14,14,33,985.34
2016,10,14,14,34,985.34
2016,10,14,14,35,985.37
2016,10,14,14,36,985.37
2016,10,14,14,37,985.34
2016,10,14,14,38,985.37
2016,10,14,14,39,985.41
2016,10,14,14,40,985.41
2016,10,14,14,41,985.47
2016,10,14,14,42,985.51
2016,10,14,14,43,985.47
2016,10,14,14,44,985.44
2016,10,14,14,45,985.47
2016,10,14,14,46,985.54
2016,10,14,14,47,985.57
2016,10,14,14,48,985.57
2016,10,14,14,49,985.57
2016,10,14,14,50,985.64
2016,10,14,14,51,985.64
2016,10,14,14,52,985.64
2016,10,14,14,53,985.64
2016,10,14,14,54,985.68
2016,10,14,14,55,985.71
2016,10,14,14,56,985.68
2016,10,14,14,57,985.71
2016,10,14,14,58,985.78
2016,10,14,14,59,985.81
2016,10,14,15,00,985.85
2016,10,14,15,01,985.88
2016,10,14,15,02,985.91
2016,10,14,15,03,985.91
2016,10,14,15,04,985.95
2016,10,14,15,05,985.98
2016,10,14,15,06,986.02
2016,10,14,15,07,986.02
2016,10,14,15,08,986.02
2016,10,14,15,09,986.08
2016,10,14,15,10,986.08
2016,10,14,15,11,986.15
2016,10,14,15,12,986.12
2016,10,14,15,13,986.22
2016,10,14,15,14,986.18
2016,10,14,15,15,986.22
2016,10,14,15,16,986.22
2016,10,14,15,17,986.25
2016,10,14,15,18,986.29
2016,10,14,15,19,986.29
2016,10,14,15,20,986.29
2016,10,14,15,21,986.32
2016,10,14,15,22,986.29
2016,10,14,15,23,986.35
2016,10,14,15,24,986.35
2016,10,14,15,25,986.39
2016,10,14,15,26,986.42
2016,10,14,15,27,986.42
2016,10,14,15,28,986.46
2016,10,14,15,29,986.49
2016,10,14,15,30,986.52
2016,10,14,15,31,986.52
2016,10,14,15,32,986.56
2016,10,14,15,33,986.59
2016,10,14,15,34,986.59
2016,10,14,15,35,986.62
2016,10,14,15,36,986.62
2016,10,14,15,37,986.69
2016,10,14,15,38,986.73
2016,10,14,15,39,986.79
2016,10,14,15,40,986.79
2016,10,14,15,41,986.90
2016,10,14,15,42,986.90
2016,10,14,15,43,986.90
2016,10,14,15,44,986.96
2016,10,14,15,45,987.00
2016,10,14,15,46,987.00
2016,10,14,15,47,987.06
2016,10,14,15,48,987.10
2016,10,14,15,49,987.17
2016,10,14,15,50,987.20
2016,10,14,15,51,987.23
2016,10,14,15,52,987.23
2016,10,14,15,53,987.27
2016,10,14,15,54,987.30
2016,10,14,15,55,987.37
2016,10,14,15,56,987.44
2016,10,14,15,57,987.44
2016,10,14,15,58,987.47
2016,10,14,15,59,987.47
2016,10,14,16,00,987.51
2016,10,14,16,01,987.57
2016,10,14,16,02,987.57
2016,10,14,16,03,987.64
2016,10,14,16,04,987.71
2016,10,14,16,05,987.71
2016,10,14,16,06,987.78
2016,10,14,16,07,987.78
2016,10,14,16,08,987.84
2016,10,14,16,09,987.95
2016,10,14,16,10,987.98
2016,10,14,16,11,988.01
2016,10,14,16,12,988.05
2016,10,14,16,13,988.08
2016,10,14,16,14,988.15
2016,10,14,16,15,988.18
2016,10,14,16,16,988.28
2016,10,14,16,17,988.25
2016,10,14,16,18,988.32
2016,10,14,16,19,988.39
2016,10,14,16,20,988.39
2016,10,14,16,21,988.39
2016,10,14,16,22,988.45
2016,10,14,16,23,988.49
2016,10,14,16,24,988.52
2016,10,14,16,25,988.55
2016,10,14,16,26,988.55
2016,10,14,16,27,988.59
2016,10,14,16,28,988.59
2016,10,14,16,29,988.62
2016,10,14,16,30,988.62
2016,10,14,16,31,988.69
2016,10,14,16,32,988.69
2016,10,14,16,33,988.72
2016,10,14,16,34,988.76
2016,10,14,16,35,988.79
2016,10,14,16,36,988.86